Location: Unspecified
(0.0000°N, 0.0000°E)
Time: 20:40:59
(UTC+02:00)

ARIANE DEB (SPELDA) - Visible Passes

Search period start: 18 April 2014 00:00
Search period end: 28 April 2014 00:00
Orbit: 342 x 33334 km, 3.6° (Epoch: 17 April)

Date Brightness Start Highest point End Pass type
(mag) Time Alt. Az. Time Alt. Az. Time Alt. Az.
18 Apr 2.2 06:29:27 59° ESE 06:29:27 59° ESE 06:31:17 10° E visible
18 Apr 7.9 16:45:47 10° W 01:26:27 61° WSW 01:26:27 61° WSW visible
19 Apr 6.0 12:01:39 10° W 12:09:30 79° N 21:00:21 15° E visible
20 Apr 1.3 07:23:25 12° W 07:25:45 85° N 07:28:13 10° E visible
20 Apr 8.2 17:47:14 10° W 02:20:52 39° W 02:20:52 39° W visible
21 Apr 6.7 12:58:02 10° W 13:10:18 81° N 21:54:44 32° E visible
22 Apr 8.5 18:52:48 10° W 03:15:12 21° W 03:15:12 21° W visible
23 Apr 7.3 13:54:44 10° W 20:44:44 88° SSE 22:49:02 52° E visible
24 Apr 11.4 20:08:41 10° W 21:29:11 23° W 00:12:46 10° W visible
25 Apr 7.5 14:52:00 10° W 19:00:59 90° S 23:43:15 74° ESE visible
27 Apr 8.5 15:50:11 10° W 17:40:13 84° WNW 00:00:00 56° W visible
